Location: Carthage
(33.8834°N, 106.6595°W)
Time: 12:42:05
(UTC+00:00)

Cosmos 1570 Rocket - Pass Details

Date: 13 February 2026
Orbit: 760 x 783 km, 74.1° (Epoch: 11 March)

Event Time Altitude Azimuth Distance (km) Brightness Sun altitude
Exits shadow 12:23:49 15° 331° (NNW) 1,958 5.8 -19.1°
Maximum altitude 12:28:00 56° 257° (WSW) 896 4.0 -18.2°
Drops below altitude 10° 12:33:03 10° 179° (S) 2,284 6.5 -17.2°
Sets 12:35:27 0° 175° (S) 3,208 7.3 -16.7°
